SCP
0 0 0 0 0 0 0 0 0 0 0 0 0 -0 0 0 -0 -0 -0 -0 -0 -0 -0 0 -0 -0 -0 -0 -0 -0 -0 -0 -0 -0 -0 -0 -0 -0 -0 -0 -0 -0 -0 -0 -0 -0 -0 -0 -0
0 0 0 0 0 0 0 0 0 -0 -0 -0 0 0 0 0 -0 -0 0 -0 0 0 -0 0 0 -0 -0 -0 -0 -0 -0 -0 -0 -0 -0 -0 -0 -0 -0 -0 -0 -0 -0 -0 -0 -0 -0 -0 -0
0 0 0 0 0 0 0 0 0 0 0 0 0 0 0 0 0 -0 -0 -0 0 -0 0 0 -0 -0 -0 -0 -0 -0 -0 -0 -0 -0 -0 -0 -0 -0 -0 -0 -0 -0 -0 -0 -0 -0 -0 -0 -0
0 0 0 0 0 0 0 0 0 0 0 0 0 0 0 0 -0 -0 -0 -0 -0 -0 -0 -0 0 -0 -0 -0 -0 -0 -0 -0 -0 -0 -0 -0 -0 -0 -0 -0 -0 -0 -0 -0 -0 -0 -0 -0 -0
0 0 0 0 0 0 0 -0 0 0 0 0 0 0 0 0 -0 -0 -0 -0 -0 0 -0 -0 -0 -0 -0 -0 -0 -0 -0 -0 -0 -0 -0 -0 -0 -0 -0 -0 -0 -0 -0 -0 -0 -0 -0 -0 -0
0 0 0 0 0 0 -0 -0 0 0 0 0 0 0 0 0 -0 -0 -0 0 0 0 0 0 0 0 0 0 -0 -0 -0 0 0 0 0 -0 -0 0 -0 -0 -0 -0 -0 -0 -0 -0 -0 -0 -0
0 0 0 0 0 0 0 0 0 0 0 0 0 0 0 0 0 -0 -0 -0 0 0 -0 0 0 0 -0 -0 -0 -0 -0 -0 -0 0 0 0 -0 -0 -0 -0 -0 -0 -0 -0 -0 -0 -0 -0 -0
0 0 0 0 0 0 0 0 0 0 0 0 0 -0 0 0 0 0 0 -0 0 0 0 0 0 0 0 0 -0 -0 -0 -0 -0 -0 -0 -0 0 -0 -0 -0 -0 -0 -0 -0 -0 0 0 0 0
0 0 0 0 0 0 0 0 0 0 0 0 0 0 0 0 0 0 0 -0 -0 0 0 0 0 0 0 0 -0 -0 -0 -0 -0 -0 -0 -0 0 0 -0 -0 -0 -0 -0 0 0 0 0 0 0
0 0 0 0 0 0 0 0 0 0 0 0 0 0 0 0 0 0 0 0 0 0 -0 -0 -0 0 0 0 0 -0 -0 -0 -0 -0 -0 -0 0 0 0 0 -0 -0 -0 0 0 0 0 0 0
0 0 0 0 0 0 0 0 0 0 0 0 0 0 0 0 0 0 0 0 -0 0 0 -0 -0 0 0 0 0 -0 -0 -0 -0 -0 -0 -0 -0 0 0 0 0 0 0 0 0 0 0 0 0
0 0 0 0 0 0 0 0 0 0 0 0 0 -0 0 0 0 0 0 0 0 0 0 0 0 -0 -0 -0 -0 -0 -0 -0 -0 -0 -0 0 0 0 0 0 0 0 0 0 0 0 0 0 0
0 0 0 0 0 0 0 0 0 0 0 0 0 0 0 0 0 0 0 0 0 0 0 0 0 0 -0 0 -0 -0 -0 -0 -0 0 -0 -0 -0 0 0 0 0 0 0 0 0 0 0 0 0
0 0 0 0 0 0 0 0 0 0 0 0 0 0 0 0 0 0 0 0 0 0 0 0 0 -0 -0 0 0 -0 -0 0 -0 -0 -0 -0 0 0 0 0 0 0 0 0 0 0 0 0 0
0 0 0 0 0 0 0 0 0 0 0 0 0 0 0 -0 0 0 0 0 0 0 0 0 0 0 0 0 -0 0 0 0 0 0 0 0 0 0 0 0 0 0 0 0 0 0 0 0 0
0 0 0 0 0 0 0 0 0 0 0 0 0 0 0 -0 -0 -0 0 0 0 0 -0 -0 0 0 0 0 0 0 0 0 0 0 0 0 0 0 0 0 0 0 0 0 0 0 0 0 0
0 0 0 0 0 0 0 0 0 0 0 0 0 0 0 -0 -0 -0 -0 0 0 -0 -0 -0 0 0 0 0 0 0 0 0 0 0 0 0 0 0 0 0 0 0 0 0 0 0 0 0 0
0 0 0 0 0 0 0 0 0 0 0 0 0 0 0 0 -0 -0 -0 -0 0 0 0 -0 0 0 0 0 0 0 0 0 0 0 0 0 0 0 0 0 0 0 0 0 0 0 0 0 0
0 0 0 0 0 0 0 0 0 0 0 0 0 0 0 0 0 0 0 0 0 0 0 0 0 0 0 0 0 0 0 0 0 0 0 0 0 0 0 0 0 0 0 0 0 0 0 0 0
0 0 0 0 0 0 0 0 0 0 0 0 0 0 0 0 0 0 0 0 0 0 0 0 0 0 0 0 0 0 0 0 0 0 0 0 0 0 0 0 0 0 0 0 0 0 0 0 0
0 0 0 0 0 0 0 0 0 0 0 0 0 0 0 0 0 0 0 0 0 0 0 0 0 0 0 0 0 0 0 0 0 0 0 0 0 0 0 0 0 0 0 0 0 0 0 0 0
0 0 0 0 0 0 0 0 0 0 0 0 0 0 0 0 0 0 0 0 0 0 0 0 0 0 0 0 0 0 0 0 0 0 0 0 0 0 0 0 0 0 0 0 0 0 0 0 0
0 0 0 0 0 0 0 0 0 0 0 0 0 0 0 0 0 0 0 0 0 0 0 0 0 0 0 0 0 0 0 0 0 0 0 0 0 0 0 0 0 0 0 0 0 0 0 0 0
0 0 0 0 0 0 0 0 0 0 0 0 0 0 0 0 0 0 0 0 0 0 0 0 0 0 0 0 0 0 0 0 0 0 0 0 0 0 0 0 0 0 0 0 0 0 0 0 0
0 0 0 0 0 0 0 0 0 0 0 0 0 0 0 0 0 0 0 0 0 0 0 0 0 0 0 0 0 0 0 0 0 0 0 0 0 0 0 0 0 0 0 0 0 0 0 0 0
0 0 0 0 0 0 0 0 0 0 0 0 0 0 0 0 0 0 0 0 0 0 0 0 0 0 0 0 0 0 0 0 0 0 0 0 0 0 0 0 0 0 0 0 0 0 0 0 0
0 0 0 0 0 0 0 0 0 0 0 0 0 0 0 0 0 0 0 0 0 0 0 0 0 0 0 0 0 0 0 0 0 0 0 0 0 0 0 0 0 0 0 0 0 0 0 0 0
0 0 0 0 0 0 0 0 0 0 0 0 0 0 0 0 0 0 0 0 0 0 0 0 0 0 0 0 0 0 0 0 0 0 0 0 0 0 0 0 0 0 0 0 0 0 0 0 0
0 0 0 0 0 0 0 0 -0 -0 0 0 0 0 0 0 0 0 0 0 0 0 0 0 0 0 0 0 0 0 0 0 0 0 0 0 0 0 0 0 0 0 0 0 0 0 0 0 0
0 0 0 0 0 0 0 0 0 0 0 0 0 0 0 0 0 0 0 0 0 0 0 0 0 0 0 0 0 0 0 0 0 0 0 0 0 0 0 0 0 0 0 0 0 0 0 0 0
Wind_Speed_500mb
7 10 4 4 8 9 5 2 6 6 7 8 22 29 19 13 8 4 38 21 32 40 35 30 24 25 23 22 22 23 21 23 22 30 34 32 32 31 34 34 33 39 37 35 37 37 35 31 27
5 4 4 6 8 4 8 6 8 7 26 42 28 25 18 5 16 30 40 29 28 34 35 30 25 26 25 23 22 21 22 23 24 35 34 23 31 36 35 39 35 34 36 32 30 29 26 26 23
6 3 2 8 6 6 9 5 11 12 22 10 13 23 10 11 31 40 31 37 28 31 33 29 27 29 27 27 20 18 20 21 25 34 35 22 27 34 29 36 29 29 32 28 25 23 21 22 17
6 3 7 8 5 5 13 13 12 17 17 17 35 16 13 12 33 26 44 35 30 34 31 32 31 30 30 29 20 18 19 22 24 27 31 33 23 28 33 31 25 24 22 22 23 22 20 18 14
3 4 7 5 6 3 3 26 18 9 12 24 10 8 9 28 21 30 37 35 34 36 32 29 28 32 32 30 22 18 19 23 23 28 28 26 27 27 32 29 17 18 22 21 20 20 20 17 10
5 6 6 4 3 4 8 27 21 13 17 24 23 17 5 29 31 41 30 39 42 37 36 35 35 34 34 30 23 19 20 21 25 24 25 23 24 27 28 22 15 16 17 19 19 18 16 15 7
8 8 8 9 6 3 11 25 28 23 20 9 38 10 23 53 41 39 36 36 37 36 34 33 34 33 31 27 20 20 22 23 26 24 23 23 23 23 23 16 15 16 15 14 14 14 14 14 7
5 10 9 7 8 9 9 14 28 37 9 31 24 15 23 60 49 45 33 28 28 34 34 34 34 33 29 23 21 22 22 23 25 22 20 20 18 18 13 14 17 17 16 14 13 13 13 13 11
6 7 6 10 13 10 15 10 11 14 25 14 15 26 51 65 58 50 43 32 32 34 36 35 33 31 29 25 25 24 22 22 21 19 17 18 17 14 11 11 14 15 16 15 13 12 12 13 11
6 7 16 11 11 14 22 26 23 13 17 8 21 23 70 72 66 61 58 47 39 40 39 37 33 31 29 26 23 21 19 18 17 15 15 16 15 13 10 10 11 12 13 15 13 13 15 15 13
6 10 10 8 11 29 32 26 11 37 5 24 46 63 76 75 69 63 56 49 48 42 42 40 35 31 28 26 23 20 19 16 14 11 10 10 11 10 9 8 8 10 11 12 12 13 14 15 16
5 14 7 8 10 33 32 25 14 17 12 31 37 61 72 79 73 66 57 49 47 47 43 40 37 33 29 24 22 21 19 16 12 10 7 5 6 5 5 6 6 7 8 10 12 12 14 15 16
5 8 6 9 24 29 30 18 13 20 18 37 52 61 66 75 71 62 52 46 43 40 39 39 38 35 28 26 24 23 22 20 15 9 7 4 2 0 3 4 5 6 7 8 9 10 11 14 17
6 25 5 9 20 23 18 11 20 19 28 56 60 62 62 70 70 64 56 51 45 35 37 35 38 32 33 28 27 25 19 18 16 16 12 10 8 8 7 8 8 9 10 10 9 11 11 13 15
7 8 4 6 12 8 28 4 9 34 45 62 61 55 56 64 63 65 59 53 44 37 32 34 33 34 33 33 29 26 25 23 16 16 14 15 14 14 14 12 12 12 14 15 15 15 15 19 24
12 9 8 6 11 7 9 14 10 42 55 61 58 54 55 62 60 60 53 51 45 39 36 30 32 32 34 38 37 32 32 28 26 24 21 17 15 15 16 16 15 16 17 18 19 22 23 29 34
2 10 8 3 14 6 5 9 12 44 47 56 56 55 55 55 54 49 47 47 49 48 43 39 33 33 32 36 41 37 35 35 30 29 24 22 20 17 16 16 17 21 21 22 22 27 33 34 37
13 11 6 9 11 4 9 9 8 38 42 49 52 52 56 58 57 51 52 49 51 47 48 42 38 37 35 31 36 33 38 35 32 29 25 21 19 17 19 20 22 24 25 28 31 35 34 42 44
15 12 14 6 6 9 16 8 17 30 30 34 41 48 53 55 51 53 57 55 50 48 52 49 46 45 44 42 38 35 40 38 36 31 25 23 21 23 24 25 28 31 31 32 33 37 42 45 44
13 18 11 1 1 7 9 17 5 16 21 44 52 52 58 55 54 52 54 56 55 53 55 55 49 46 46 42 32 34 34 34 30 27 27 26 27 27 28 30 31 30 32 33 32 35 38 42 42
9 14 10 9 6 5 8 13 8 12 17 29 38 51 56 59 56 55 58 57 57 57 60 61 57 51 46 41 36 32 31 30 29 28 26 27 26 27 29 27 26 25 24 26 29 31 34 38 38
13 14 14 15 12 9 8 9 12 14 16 16 34 45 55 55 53 54 56 59 60 61 63 62 63 59 52 46 43 37 32 33 30 30 28 27 27 26 25 23 23 20 19 20 22 23 28 32 34
12 15 18 14 10 10 4 2 13 5 13 17 45 48 49 54 57 56 53 53 55 62 69 69 64 60 57 51 44 39 33 33 32 30 30 28 24 22 20 17 14 16 18 24 26 33 34 30 37
15 14 12 9 7 5 13 14 10 12 21 27 15 53 52 53 52 47 45 42 44 47 54 63 68 64 57 54 48 41 38 33 35 32 29 26 22 20 18 17 15 19 19 17 17 19 21 22 25
11 17 3 1 3 12 6 8 17 11 14 18 45 68 58 54 51 49 42 40 39 39 42 49 56 60 60 59 55 44 39 28 32 33 28 27 23 15 12 8 5 4 6 9 14 17 20 24 28
16 24 11 14 9 5 5 13 12 9 13 25 39 69 58 54 49 43 40 39 37 35 36 40 48 54 55 60 60 46 41 33 32 31 28 26 23 18 13 6 0 5 10 14 19 24 28 31 34
13 15 12 14 7 7 9 11 16 1 2 15 39 62 64 58 50 46 42 40 38 36 37 40 48 55 58 57 55 49 40 35 39 36 32 28 22 14 8 1 6 12 17 21 25 29 31 35 38
10 16 6 4 11 7 8 8 9 11 20 17 29 56 65 55 53 49 45 44 43 42 43 44 47 53 54 53 51 50 48 44 40 35 29 22 16 10 3 5 11 18 24 29 32 35 39 40 42
3 6 5 10 9 11 4 12 17 32 32 33 38 53 68 64 59 54 51 49 47 47 49 51 52 53 55 56 58 56 50 43 38 31 24 17 11 5 4 11 17 21 28 33 36 40 43 45 46
4 14 15 10 13 2 6 12 5 12 17 32 38 61 65 64 62 57 55 55 56 55 55 55 57 59 59 58 55 52 47 40 33 26 20 12 5 4 11 15 20 25 31 37 42 43 45 47 49
Wind_Direction_500mb
288 290 323 49 52 67 282 212 158 115 64 69 87 94 107 60 83 173 136 148 164 157 159 155 147 136 129 119 102 94 90 93 100 99 91 86 97 100 98 98 98 94 95 92 97 96 95 89 88
282 309 53 94 90 65 273 303 133 170 122 108 80 88 60 73 104 143 152 158 164 163 161 157 152 150 137 126 114 96 87 92 102 92 94 85 82 93 97 95 92 91 96 95 101 106 108 95 90
280 315 83 97 113 191 177 215 166 125 141 128 100 77 87 113 128 149 166 162 159 172 165 161 162 146 139 134 122 92 88 95 109 110 111 98 84 91 101 100 103 98 94 93 104 106 110 96 86
268 170 74 87 231 232 160 193 177 133 102 90 118 74 93 131 148 171 162 162 171 166 156 151 148 146 142 142 131 99 95 101 106 111 118 107 104 92 101 98 96 95 91 91 85 87 87 92 78
253 115 71 91 294 344 116 169 158 115 97 135 128 108 85 160 171 168 163 168 185 165 155 150 149 150 148 143 136 111 109 113 108 106 116 119 110 93 104 96 103 85 81 80 83 85 88 79 65
213 104 74 151 244 25 168 171 146 120 121 129 106 97 107 162 172 165 167 157 156 160 160 160 155 155 149 149 138 124 111 110 104 106 113 122 115 102 95 102 99 83 84 80 77 75 75 69 87
156 93 175 171 180 294 207 173 149 140 144 149 134 95 144 159 164 161 164 158 150 156 159 156 156 156 148 150 140 128 116 112 107 109 110 113 115 112 112 109 74 68 80 88 86 80 76 70 80
233 103 149 182 183 228 202 141 156 148 129 146 132 157 175 168 165 159 165 169 164 159 158 158 158 160 160 153 139 131 128 119 109 107 107 109 118 120 110 79 63 68 76 81 76 64 61 66 86
223 78 177 209 152 224 190 125 147 150 142 145 174 175 172 165 166 164 167 171 171 168 163 159 159 161 164 156 150 149 138 118 111 112 113 111 111 110 103 80 70 71 65 67 67 57 47 48 63
167 145 206 200 189 184 178 144 142 131 136 94 134 172 161 170 173 175 174 172 171 173 167 163 165 167 165 163 162 151 138 133 133 124 107 103 103 99 97 86 75 66 62 57 58 48 36 33 32
218 193 204 222 206 192 160 150 147 143 226 177 151 154 164 174 179 181 183 182 172 175 173 170 169 171 172 171 169 164 160 155 148 134 120 110 97 88 80 76 64 57 48 40 36 30 27 27 31
234 237 200 210 172 169 158 161 136 155 215 183 177 166 169 177 184 187 189 188 177 183 183 175 177 174 169 175 177 179 173 170 169 165 148 131 94 84 64 49 40 26 26 20 16 13 7 9 17
213 290 211 184 172 171 153 153 160 202 189 168 166 169 177 182 189 193 195 193 188 190 196 191 187 184 182 184 190 192 188 183 184 187 193 201 206 249 328 339 346 336 345 352 358 1 358 357 359
233 232 276 202 146 163 146 150 150 185 170 166 172 179 183 190 190 195 199 201 201 201 203 204 197 195 191 198 197 205 200 202 199 202 211 225 237 259 273 285 294 304 316 318 321 334 343 347 335
240 132 34 247 186 143 136 79 195 175 170 171 180 185 191 195 195 200 203 210 206 204 206 206 200 204 209 204 202 195 201 201 216 220 225 226 239 246 257 272 284 295 300 303 302 303 311 329 325
145 87 147 245 194 163 140 221 210 172 173 179 183 188 192 198 199 205 205 211 216 215 212 213 208 207 215 213 220 206 209 213 211 220 232 240 248 249 254 264 271 278 287 296 302 304 312 311 310
149 175 187 222 211 132 150 210 202 179 180 186 194 193 196 199 200 203 204 209 215 224 222 218 221 221 219 219 228 232 215 213 222 228 235 235 245 258 274 275 277 285 298 311 309 301 305 306 305
158 139 153 179 216 181 173 236 180 184 191 198 199 198 202 205 208 207 208 209 218 223 224 228 229 229 228 228 225 231 218 222 228 233 236 239 249 259 274 285 290 293 295 299 298 299 299 304 306
142 138 171 218 203 146 205 218 206 191 201 211 211 209 203 204 203 208 207 204 210 215 218 225 229 228 227 224 226 234 218 222 227 234 236 239 254 265 268 271 283 290 291 291 291 295 300 300 306
142 162 186 70 66 160 164 232 234 205 216 210 208 207 201 198 199 197 200 201 205 209 214 221 230 229 226 231 240 247 232 223 228 233 242 250 253 261 268 272 275 276 278 281 286 292 295 298 305
200 169 174 162 140 60 109 304 212 233 220 216 211 208 200 203 203 200 201 204 208 213 218 219 223 224 227 229 228 230 218 223 230 238 246 253 253 257 256 262 265 267 276 284 287 289 293 297 299
203 195 168 148 132 189 157 255 246 216 200 203 200 200 202 198 198 203 206 209 210 213 215 218 221 220 219 217 222 228 222 221 227 232 236 237 244 246 253 255 260 260 261 269 279 279 294 292 296
197 143 162 160 148 124 205 148 261 136 213 221 209 197 190 199 203 207 213 218 218 220 221 221 223 221 213 210 220 224 226 215 217 218 223 228 233 236 242 254 259 257 264 273 275 279 293 286 289
142 98 51 66 101 242 197 171 253 188 205 208 199 202 197 201 202 208 215 221 224 223 223 222 222 220 212 206 212 215 218 211 208 209 208 207 207 213 228 236 252 262 267 277 286 296 304 307 305
164 146 131 142 184 217 158 159 239 229 234 208 203 203 198 200 206 211 215 221 222 218 215 215 214 213 209 203 200 207 201 210 192 195 213 204 207 197 195 184 199 247 288 308 316 316 316 314 313
191 175 154 175 188 205 122 226 243 223 256 235 225 207 191 192 206 211 211 210 208 204 201 204 203 208 202 199 202 195 211 204 206 203 175 166 166 163 159 159 169 330 328 322 320 316 315 315 314
190 187 153 98 20 75 212 281 301 205 109 169 175 182 186 190 198 203 199 201 196 192 188 192 196 200 197 196 198 194 207 199 175 165 161 163 160 155 148 174 322 322 320 318 319 320 322 322 321
189 156 106 15 136 219 260 263 232 232 223 183 176 182 187 188 193 193 190 191 186 184 181 183 186 189 189 192 195 192 177 169 165 162 163 159 158 159 189 309 323 322 323 325 324 323 324 323 321
146 202 77 121 149 177 180 253 214 205 207 192 189 181 185 187 188 187 186 185 182 177 175 174 173 171 169 170 170 169 165 166 164 162 163 162 167 191 291 315 322 324 322 321 321 322 320 320 320
277 208 175 177 219 284 160 263 176 226 207 180 176 185 190 192 189 188 185 183 181 176 171 168 166 167 167 168 167 167 166 166 166 168 170 172 191 297 321 323 324 324 320 318 317 319 320 321 323
Wind_Speed_850mb
7 10 4 4 8 9 5 2 6 6 7 8 22 29 19 13 8 4 38 21 32 40 35 30 24 25 23 22 22 23 21 23 22 30 34 32 32 31 34 34 33 39 37 35 37 37 35 31 27
5 4 4 6 8 4 8 6 8 7 26 42 28 25 18 5 16 30 40 29 28 34 35 30 25 26 25 23 22 21 22 23 24 35 34 23 31 36 35 39 35 34 36 32 30 29 26 26 23
6 3 2 8 6 6 9 5 11 12 22 10 13 23 10 11 31 40 31 37 28 31 33 29 27 29 27 27 20 18 20 21 25 34 35 22 27 34 29 36 29 29 32 28 25 23 21 22 17
6 3 7 8 5 5 13 13 12 17 17 17 35 16 13 12 33 26 44 35 30 34 31 32 31 30 30 29 20 18 19 22 24 27 31 33 23 28 33 31 25 24 22 22 23 22 20 18 14
3 4 7 5 6 3 3 26 18 9 12 24 10 8 9 28 21 30 37 35 34 36 32 29 28 32 32 30 22 18 19 23 23 28 28 26 27 27 32 29 17 18 22 21 20 20 20 17 10
5 6 6 4 3 4 8 27 21 13 17 24 23 17 5 29 31 41 30 39 42 37 36 35 35 34 34 30 23 19 20 21 25 24 25 23 24 27 28 22 15 16 17 19 19 18 16 15 7
8 8 8 9 6 3 11 25 28 23 20 9 38 10 23 53 41 39 36 36 37 36 34 33 34 33 31 27 20 20 22 23 26 24 23 23 23 23 23 16 15 16 15 14 14 14 14 14 7
5 10 9 7 8 9 9 14 28 37 9 31 24 15 23 60 49 45 33 28 28 34 34 34 34 33 29 23 21 22 22 23 25 22 20 20 18 18 13 14 17 17 16 14 13 13 13 13 11
6 7 6 10 13 10 15 10 11 14 25 14 15 26 51 65 58 50 43 32 32 34 36 35 33 31 29 25 25 24 22 22 21 19 17 18 17 14 11 11 14 15 16 15 13 12 12 13 11
6 7 16 11 11 14 22 26 23 13 17 8 21 23 70 72 66 61 58 47 39 40 39 37 33 31 29 26 23 21 19 18 17 15 15 16 15 13 10 10 11 12 13 15 13 13 15 15 13
6 10 10 8 11 29 32 26 11 37 5 24 46 63 76 75 69 63 56 49 48 42 42 40 35 31 28 26 23 20 19 16 14 11 10 10 11 10 9 8 8 10 11 12 12 13 14 15 16
5 14 7 8 10 33 32 25 14 17 12 31 37 61 72 79 73 66 57 49 47 47 43 40 37 33 29 24 22 21 19 16 12 10 7 5 6 5 5 6 6 7 8 10 12 12 14 15 16
5 8 6 9 24 29 30 18 13 20 18 37 52 61 66 75 71 62 52 46 43 40 39 39 38 35 28 26 24 23 22 20 15 9 7 4 2 0 3 4 5 6 7 8 9 10 11 14 17
6 25 5 9 20 23 18 11 20 19 28 56 60 62 62 70 70 64 56 51 45 35 37 35 38 32 33 28 27 25 19 18 16 16 12 10 8 8 7 8 8 9 10 10 9 11 11 13 15
7 8 4 6 12 8 28 4 9 34 45 62 61 55 56 64 63 65 59 53 44 37 32 34 33 34 33 33 29 26 25 23 16 16 14 15 14 14 14 12 12 12 14 15 15 15 15 19 24
12 9 8 6 11 7 9 14 10 42 55 61 58 54 55 62 60 60 53 51 45 39 36 30 32 32 34 38 37 32 32 28 26 24 21 17 15 15 16 16 15 16 17 18 19 22 23 29 34
2 10 8 3 14 6 5 9 12 44 47 56 56 55 55 55 54 49 47 47 49 48 43 39 33 33 32 36 41 37 35 35 30 29 24 22 20 17 16 16 17 21 21 22 22 27 33 34 37
13 11 6 9 11 4 9 9 8 38 42 49 52 52 56 58 57 51 52 49 51 47 48 42 38 37 35 31 36 33 38 35 32 29 25 21 19 17 19 20 22 24 25 28 31 35 34 42 44
15 12 14 6 6 9 16 8 17 30 30 34 41 48 53 55 51 53 57 55 50 48 52 49 46 45 44 42 38 35 40 38 36 31 25 23 21 23 24 25 28 31 31 32 33 37 42 45 44
13 18 11 1 1 7 9 17 5 16 21 44 52 52 58 55 54 52 54 56 55 53 55 55 49 46 46 42 32 34 34 34 30 27 27 26 27 27 28 30 31 30 32 33 32 35 38 42 42
9 14 10 9 6 5 8 13 8 12 17 29 38 51 56 59 56 55 58 57 57 57 60 61 57 51 46 41 36 32 31 30 29 28 26 27 26 27 29 27 26 25 24 26 29 31 34 38 38
13 14 14 15 12 9 8 9 12 14 16 16 34 45 55 55 53 54 56 59 60 61 63 62 63 59 52 46 43 37 32 33 30 30 28 27 27 26 25 23 23 20 19 20 22 23 28 32 34
12 15 18 14 10 10 4 2 13 5 13 17 45 48 49 54 57 56 53 53 55 62 69 69 64 60 57 51 44 39 33 33 32 30 30 28 24 22 20 17 14 16 18 24 26 33 34 30 37
15 14 12 9 7 5 13 14 10 12 21 27 15 53 52 53 52 47 45 42 44 47 54 63 68 64 57 54 48 41 38 33 35 32 29 26 22 20 18 17 15 19 19 17 17 19 21 22 25
11 17 3 1 3 12 6 8 17 11 14 18 45 68 58 54 51 49 42 40 39 39 42 49 56 60 60 59 55 44 39 28 32 33 28 27 23 15 12 8 5 4 6 9 14 17 20 24 28
16 24 11 14 9 5 5 13 12 9 13 25 39 69 58 54 49 43 40 39 37 35 36 40 48 54 55 60 60 46 41 33 32 31 28 26 23 18 13 6 0 5 10 14 19 24 28 31 34
13 15 12 14 7 7 9 11 16 1 2 15 39 62 64 58 50 46 42 40 38 36 37 40 48 55 58 57 55 49 40 35 39 36 32 28 22 14 8 1 6 12 17 21 25 29 31 35 38
10 16 6 4 11 7 8 8 9 11 20 17 29 56 65 55 53 49 45 44 43 42 43 44 47 53 54 53 51 50 48 44 40 35 29 22 16 10 3 5 11 18 24 29 32 35 39 40 42
3 6 5 10 9 11 4 12 17 32 32 33 38 53 68 64 59 54 51 49 47 47 49 51 52 53 55 56 58 56 50 43 38 31 24 17 11 5 4 11 17 21 28 33 36 40 43 45 46
4 14 15 10 13 2 6 12 5 12 17 32 38 61 65 64 62 57 55 55 56 55 55 55 57 59 59 58 55 52 47 40 33 26 20 12 5 4 11 15 20 25 31 37 42 43 45 47 49
Wind_Direction_850mb
288 290 323 49 52 67 282 212 158 115 64 69 87 94 107 60 83 173 136 148 164 157 159 155 147 136 129 119 102 94 90 93 100 99 91 86 97 100 98 98 98 94 95 92 97 96 95 89 88
282 309 53 94 90 65 273 303 133 170 122 108 80 88 60 73 104 143 152 158 164 163 161 157 152 150 137 126 114 96 87 92 102 92 94 85 82 93 97 95 92 91 96 95 101 106 108 95 90
280 315 83 97 113 191 177 215 166 125 141 128 100 77 87 113 128 149 166 162 159 172 165 161 162 146 139 134 122 92 88 95 109 110 111 98 84 91 101 100 103 98 94 93 104 106 110 96 86
268 170 74 87 231 232 160 193 177 133 102 90 118 74 93 131 148 171 162 162 171 166 156 151 148 146 142 142 131 99 95 101 106 111 118 107 104 92 101 98 96 95 91 91 85 87 87 92 78
253 115 71 91 294 344 116 169 158 115 97 135 128 108 85 160 171 168 163 168 185 165 155 150 149 150 148 143 136 111 109 113 108 106 116 119 110 93 104 96 103 85 81 80 83 85 88 79 65
213 104 74 151 244 25 168 171 146 120 121 129 106 97 107 162 172 165 167 157 156 160 160 160 155 155 149 149 138 124 111 110 104 106 113 122 115 102 95 102 99 83 84 80 77 75 75 69 87
156 93 175 171 180 294 207 173 149 140 144 149 134 95 144 159 164 161 164 158 150 156 159 156 156 156 148 150 140 128 116 112 107 109 110 113 115 112 112 109 74 68 80 88 86 80 76 70 80
233 103 149 182 183 228 202 141 156 148 129 146 132 157 175 168 165 159 165 169 164 159 158 158 158 160 160 153 139 131 128 119 109 107 107 109 118 120 110 79 63 68 76 81 76 64 61 66 86
223 78 177 209 152 224 190 125 147 150 142 145 174 175 172 165 166 164 167 171 171 168 163 159 159 161 164 156 150 149 138 118 111 112 113 111 111 110 103 80 70 71 65 67 67 57 47 48 63
167 145 206 200 189 184 178 144 142 131 136 94 134 172 161 170 173 175 174 172 171 173 167 163 165 167 165 163 162 151 138 133 133 124 107 103 103 99 97 86 75 66 62 57 58 48 36 33 32
218 193 204 222 206 192 160 150 147 143 226 177 151 154 164 174 179 181 183 182 172 175 173 170 169 171 172 171 169 164 160 155 148 134 120 110 97 88 80 76 64 57 48 40 36 30 27 27 31
234 237 200 210 172 169 158 161 136 155 215 183 177 166 169 177 184 187 189 188 177 183 183 175 177 174 169 175 177 179 173 170 169 165 148 131 94 84 64 49 40 26 26 20 16 13 7 9 17
213 290 211 184 172 171 153 153 160 202 189 168 166 169 177 182 189 193 195 193 188 190 196 191 187 184 182 184 190 192 188 183 184 187 193 201 206 249 328 339 346 336 345 352 358 1 358 357 359
233 232 276 202 146 163 146 150 150 185 170 166 172 179 183 190 190 195 199 201 201 201 203 204 197 195 191 198 197 205 200 202 199 202 211 225 237 259 273 285 294 304 316 318 321 334 343 347 335
240 132 34 247 186 143 136 79 195 175 170 171 180 185 191 195 195 200 203 210 206 204 206 206 200 204 209 204 202 195 201 201 216 220 225 226 239 246 257 272 284 295 300 303 302 303 311 329 325
145 87 147 245 194 163 140 221 210 172 173 179 183 188 192 198 199 205 205 211 216 215 212 213 208 207 215 213 220 206 209 213 211 220 232 240 248 249 254 264 271 278 287 296 302 304 312 311 310
149 175 187 222 211 132 150 210 202 179 180 186 194 193 196 199 200 203 204 209 215 224 222 218 221 221 219 219 228 232 215 213 222 228 235 235 245 258 274 275 277 285 298 311 309 301 305 306 305
158 139 153 179 216 181 173 236 180 184 191 198 199 198 202 205 208 207 208 209 218 223 224 228 229 229 228 228 225 231 218 222 228 233 236 239 249 259 274 285 290 293 295 299 298 299 299 304 306
142 138 171 218 203 146 205 218 206 191 201 211 211 209 203 204 203 208 207 204 210 215 218 225 229 228 227 224 226 234 218 222 227 234 236 239 254 265 268 271 283 290 291 291 291 295 300 300 306
142 162 186 70 66 160 164 232 234 205 216 210 208 207 201 198 199 197 200 201 205 209 214 221 230 229 226 231 240 247 232 223 228 233 242 250 253 261 268 272 275 276 278 281 286 292 295 298 305
200 169 174 162 140 60 109 304 212 233 220 216 211 208 200 203 203 200 201 204 208 213 218 219 223 224 227 229 228 230 218 223 230 238 246 253 253 257 256 262 265 267 276 284 287 289 293 297 299
203 195 168 148 132 189 157 255 246 216 200 203 200 200 202 198 198 203 206 209 210 213 215 218 221 220 219 217 222 228 222 221 227 232 236 237 244 246 253 255 260 260 261 269 279 279 294 292 296
197 143 162 160 148 124 205 148 261 136 213 221 209 197 190 199 203 207 213 218 218 220 221 221 223 221 213 210 220 224 226 215 217 218 223 228 233 236 242 254 259 257 264 273 275 279 293 286 289
142 98 51 66 101 242 197 171 253 188 205 208 199 202 197 201 202 208 215 221 224 223 223 222 222 220 212 206 212 215 218 211 208 209 208 207 207 213 228 236 252 262 267 277 286 296 304 307 305
164 146 131 142 184 217 158 159 239 229 234 208 203 203 198 200 206 211 215 221 222 218 215 215 214 213 209 203 200 207 201 210 192 195 213 204 207 197 195 184 199 247 288 308 316 316 316 314 313
191 175 154 175 188 205 122 226 243 223 256 235 225 207 191 192 206 211 211 210 208 204 201 204 203 208 202 199 202 195 211 204 206 203 175 166 166 163 159 159 169 330 328 322 320 316 315 315 314
190 187 153 98 20 75 212 281 301 205 109 169 175 182 186 190 198 203 199 201 196 192 188 192 196 200 197 196 198 194 207 199 175 165 161 163 160 155 148 174 322 322 320 318 319 320 322 322 321
189 156 106 15 136 219 260 263 232 232 223 183 176 182 187 188 193 193 190 191 186 184 181 183 186 189 189 192 195 192 177 169 165 162 163 159 158 159 189 309 323 322 323 325 324 323 324 323 321
146 202 77 121 149 177 180 253 214 205 207 192 189 181 185 187 188 187 186 185 182 177 175 174 173 171 169 170 170 169 165 166 164 162 163 162 167 191 291 315 322 324 322 321 321 322 320 320 320
277 208 175 177 219 284 160 263 176 226 207 180 176 185 190 192 189 188 185 183 181 176 171 168 166 167 167 168 167 167 166 166 166 168 170 172 191 297 321 323 324 324 320 318 317 319 320 321 323